Temp
-13 -13 -13 -13 -13 -13 -13 -13 -13 -13 -12 -12 -12 -12 -12 -12 -12 -12 -12 -12 -11 -11 -11 -10 -10 -10 -10 -10 -10 -9 -10 -10 -10 -9 -9 -9 -9 -9 -10 -10 -10 -10 -11 -11 -11 -11 -12
-13 -13 -13 -13 -13 -13 -13 -13 -13 -13 -13 -12 -12 -12 -12 -12 -12 -12 -12 -12 -12 -11 -11 -11 -10 -10 -10 -10 -10 -9 -10 -10 -10 -10 -9 -9 -9 -9 -9 -10 -10 -10 -10 -11 -11 -11 -11
-13 -13 -14 -13 -13 -13 -13 -13 -13 -13 -13 -13 -12 -12 -12 -12 -12 -12 -12 -12 -12 -11 -11 -11 -10 -10 -9 -10 -9 -10 -10 -9 -10 -10 -10 -9 -9 -9 -9 -9 -9 -9 -10 -11 -12 -12 -12
-14 -14 -13 -14 -13 -13 -13 -13 -13 -13 -13 -13 -13 -13 -12 -12 -12 -12 -12 -12 -11 -11 -11 -11 -10 -10 -10 -10 -9 -10 -10 -10 -10 -10 -10 -9 -9 -9 -9 -9 -9 -10 -10 -11 -12 -12 -12
-15 -15 -14 -14 -14 -14 -13 -13 -13 -13 -13 -13 -13 -13 -13 -12 -12 -12 -11 -11 -11 -11 -11 -11 -10 -10 -11 -10 -10 -10 -10 -10 -10 -10 -10 -10 -9 -9 -9 -10 -10 -10 -11 -11 -12 -12 -13
-16 -16 -15 -15 -14 -14 -14 -14 -14 -13 -13 -13 -13 -13 -13 -12 -12 -12 -12 -11 -11 -11 -11 -11 -10 -11 -10 -9 -10 -9 -9 -9 -10 -10 -10 -10 -10 -9 -10 -10 -11 -11 -11 -12 -12 -13 -13
-18 -17 -16 -16 -15 -15 -14 -14 -14 -14 -13 -13 -13 -13 -13 -12 -12 -12 -11 -11 -11 -11 -11 -11 -11 -11 -10 -10 -10 -10 -10 -9 -10 -11 -11 -10 -10 -10 -11 -11 -11 -11 -12 -12 -13 -13 -12
-22 -19 -18 -17 -16 -15 -15 -15 -14 -14 -14 -13 -13 -13 -13 -13 -13 -12 -12 -11 -11 -11 -11 -11 -11 -11 -10 -10 -10 -9 -10 -10 -10 -11 -11 -11 -11 -11 -11 -11 -12 -12 -12 -12 -13 -12 -12
-23 -22 -20 -18 -17 -16 -16 -15 -15 -15 -14 -14 -13 -13 -13 -13 -12 -12 -12 -11 -11 -11 -11 -11 -11 -11 -10 -10 -9 -9 -9 -10 -11 -11 -11 -11 -12 -11 -11 -11 -12 -12 -12 -13 -12 -12 -12
-24 -23 -22 -20 -18 -17 -16 -16 -16 -15 -14 -14 -14 -13 -13 -13 -12 -12 -12 -12 -12 -12 -11 -11 -11 -11 -10 -10 -10 -10 -10 -10 -10 -11 -11 -12 -12 -12 -11 -11 -12 -12 -12 -13 -13 -13 -13
-25 -24 -23 -22 -19 -18 -17 -17 -16 -16 -15 -14 -14 -14 -13 -13 -13 -13 -13 -12 -12 -12 -12 -12 -11 -11 -10 -10 -11 -11 -10 -10 -11 -12 -11 -12 -12 -12 -12 -12 -12 -13 -12 -13 -13 -13 -13
-26 -25 -24 -23 -21 -19 -18 -18 -17 -16 -15 -15 -14 -14 -14 -13 -13 -13 -13 -13 -13 -12 -12 -11 -11 -11 -11 -11 -11 -10 -10 -11 -11 -11 -11 -13 -12 -12 -12 -12 -12 -13 -13 -13 -12 -12 -13
-26 -25 -24 -23 -23 -20 -19 -19 -18 -17 -16 -15 -15 -14 -14 -14 -14 -13 -13 -13 -13 -12 -12 -12 -11 -11 -11 -11 -11 -11 -11 -11 -11 -11 -11 -12 -12 -12 -12 -12 -13 -13 -13 -13 -13 -13 -13
-27 -26 -25 -24 -23 -22 -20 -19 -18 -17 -16 -15 -15 -15 -14 -14 -14 -14 -13 -13 -12 -12 -12 -12 -12 -11 -11 -11 -11 -11 -11 -11 -11 -11 -11 -12 -13 -13 -13 -13 -13 -13 -13 -13 -13 -13 -14
-28 -26 -25 -24 -24 -23 -20 -19 -18 -18 -17 -16 -16 -15 -15 -14 -14 -14 -13 -12 -13 -13 -12 -12 -11 -11 -11 -11 -11 -11 -11 -11 -11 -11 -11 -12 -12 -13 -13 -14 -14 -13 -13 -14 -14 -14 -14
-28 -27 -25 -25 -25 -24 -21 -20 -19 -18 -17 -17 -16 -15 -15 -14 -14 -13 -13 -13 -13 -12 -12 -12 -12 -11 -11 -11 -11 -11 -11 -11 -10 -11 -11 -12 -13 -12 -13 -13 -13 -14 -14 -14 -15 -15 -14
-29 -28 -26 -25 -25 -24 -22 -20 -19 -19 -18 -17 -16 -16 -15 -15 -14 -14 -13 -13 -13 -12 -12 -12 -12 -12 -11 -11 -11 -11 -11 -11 -11 -11 -11 -12 -12 -12 -12 -12 -13 -13 -13 -14 -14 -14 -15
-29 -28 -27 -25 -25 -25 -22 -20 -20 -19 -18 -17 -17 -16 -15 -15 -14 -13 -13 -14 -13 -13 -12 -12 -12 -12 -12 -12 -11 -11 -11 -11 -11 -11 -11 -11 -12 -12 -12 -12 -12 -13 -14 -14 -14 -15 -14
-30 -29 -28 -26 -25 -25 -23 -20 -20 -19 -18 -18 -17 -16 -16 -15 -14 -14 -14 -14 -14 -13 -13 -12 -12 -12 -12 -11 -11 -11 -11 -11 -11 -11 -11 -12 -12 -12 -12 -12 -12 -13 -13 -14 -14 -14 -14
-30 -29 -28 -26 -26 -25 -23 -21 -20 -19 -19 -18 -17 -16 -15 -14 -14 -14 -14 -14 -14 -13 -13 -12 -12 -12 -12 -12 -11 -11 -11 -11 -11 -11 -12 -12 -12 -12 -12 -12 -12 -13 -14 -14 -14 -14 -14
-30 -29 -28 -26 -25 -26 -23 -22 -21 -20 -19 -18 -17 -16 -15 -14 -14 -14 -14 -14 -15 -14 -13 -13 -12 -12 -11 -11 -11 -11 -12 -12 -12 -12 -12 -12 -12 -12 -12 -12 -12 -12 -14 -14 -14 -14 -14
-30 -29 -27 -25 -24 -24 -24 -22 -21 -20 -20 -18 -17 -16 -15 -15 -16 -15 -15 -14 -15 -14 -14 -13 -13 -12 -12 -11 -11 -12 -12 -12 -12 -12 -12 -12 -12 -12 -12 -12 -12 -12 -13 -14 -14 -13 -13
-30 -29 -27 -25 -24 -25 -23 -21 -21 -20 -19 -18 -17 -16 -16 -15 -15 -15 -15 -15 -15 -14 -14 -14 -13 -13 -12 -12 -12 -12 -12 -12 -12 -12 -12 -12 -12 -12 -12 -12 -12 -12 -13 -14 -13 -14 -14
-30 -30 -27 -26 -25 -25 -23 -22 -20 -20 -19 -18 -18 -17 -16 -16 -15 -15 -15 -15 -15 -14 -14 -14 -14 -13 -13 -12 -12 -12 -12 -12 -12 -12 -12 -12 -12 -12 -12 -12 -12 -13 -13 -13 -13 -14 -14
-30 -30 -27 -26 -25 -25 -23 -22 -20 -20 -19 -19 -18 -17 -17 -16 -16 -16 -16 -15 -15 -14 -15 -15 -14 -13 -13 -13 -12 -12 -12 -12 -12 -12 -12 -12 -12 -12 -12 -12 -12 -13 -13 -13 -14 -14 -14
-30 -30 -26 -25 -25 -25 -24 -22 -21 -20 -19 -19 -18 -17 -17 -16 -16 -16 -17 -15 -15 -14 -14 -14 -14 -14 -13 -13 -13 -12 -12 -12 -12 -12 -12 -12 -12 -12 -12 -12 -12 -13 -13 -13 -14 -14 -14
-31 -30 -25 -25 -25 -25 -23 -21 -21 -20 -19 -19 -18 -18 -17 -17 -16 -16 -17 -16 -15 -15 -14 -14 -14 -13 -13 -13 -13 -13 -13 -12 -12 -12 -12 -12 -13 -12 -12 -12 -13 -13 -13 -14 -14 -14 -14
-31 -28 -25 -26 -25 -25 -22 -22 -21 -20 -19 -19 -19 -18 -17 -17 -17 -16 -16 -15 -15 -15 -14 -14 -14 -13 -13 -13 -13 -13 -13 -12 -12 -12 -12 -12 -13 -13 -13 -13 -13 -14 -13 -14 -14 -14 -14
-31 -26 -26 -26 -25 -24 -23 -22 -21 -20 -19 -19 -19 -18 -18 -17 -17 -16 -15 -15 -15 -15 -15 -14 -14 -13 -13 -13 -13 -13 -13 -13 -12 -12 -12 -12 -13 -13 -13 -13 -13 -13 -13 -14 -14 -14 -14
Height
5732 5738 5744 5749 5755 5760 5765 5770 5775 5780 5784 5788 5792 5796 5801 5805 5809 5815 5818 5822 5825 5828 5832 5835 5837 5839 5842 5845 5845 5849 5849 5849 5850 5851 5851 5852 5853 5855 5855 5856 5854 5857 5857 5859 5860 5861 5860
5714 5720 5728 5735 5741 5748 5754 5760 5765 5771 5775 5780 5784 5789 5793 5797 5801 5806 5811 5814 5818 5821 5825 5829 5831 5834 5836 5841 5839 5844 5845 5846 5847 5848 5849 5849 5848 5851 5850 5852 5851 5851 5854 5855 5855 5857 5857
5695 5701 5709 5718 5727 5734 5742 5748 5754 5760 5766 5772 5776 5781 5786 5790 5793 5798 5803 5806 5810 5814 5818 5822 5825 5828 5831 5831 5833 5840 5842 5843 5844 5845 5845 5845 5846 5847 5847 5848 5848 5849 5852 5852 5853 5853 5853
5672 5681 5689 5699 5709 5719 5728 5736 5744 5750 5756 5762 5768 5773 5779 5783 5787 5790 5795 5798 5802 5806 5811 5814 5819 5822 5824 5823 5831 5836 5835 5837 5839 5840 5841 5842 5843 5844 5845 5845 5845 5848 5850 5851 5851 5850 5850
5646 5657 5669 5679 5690 5702 5713 5722 5732 5739 5746 5752 5759 5765 5771 5776 5779 5783 5787 5791 5795 5799 5804 5808 5813 5815 5817 5821 5824 5825 5828 5832 5834 5835 5836 5839 5841 5840 5842 5843 5843 5844 5846 5848 5848 5845 5845
5620 5630 5644 5657 5670 5682 5697 5708 5718 5728 5736 5742 5749 5756 5764 5769 5773 5776 5780 5784 5788 5794 5798 5802 5806 5809 5812 5816 5819 5821 5822 5825 5829 5830 5833 5836 5838 5838 5838 5839 5839 5839 5841 5843 5841 5842 5841
5591 5604 5618 5634 5649 5662 5679 5693 5704 5716 5725 5732 5740 5749 5755 5762 5767 5769 5774 5778 5784 5790 5793 5797 5801 5803 5807 5810 5813 5816 5819 5821 5823 5827 5830 5832 5836 5835 5833 5833 5835 5836 5837 5837 5837 5837 5836
5567 5579 5592 5609 5626 5642 5660 5676 5690 5703 5713 5722 5730 5739 5748 5755 5760 5763 5768 5773 5778 5785 5786 5790 5794 5797 5802 5804 5806 5810 5814 5816 5820 5824 5825 5830 5831 5829 5830 5831 5832 5832 5833 5833 5833 5832 5833
5550 5558 5569 5586 5604 5622 5641 5659 5674 5689 5700 5711 5720 5729 5739 5747 5752 5758 5763 5770 5773 5776 5782 5786 5790 5792 5797 5801 5802 5806 5809 5812 5816 5819 5823 5826 5823 5827 5827 5828 5829 5830 5830 5831 5831 5831 5828
5534 5542 5552 5564 5582 5601 5621 5642 5659 5674 5688 5701 5711 5721 5730 5739 5747 5751 5758 5763 5765 5772 5777 5784 5787 5788 5794 5795 5799 5802 5804 5808 5812 5816 5818 5821 5821 5824 5825 5827 5828 5829 5827 5828 5828 5827 5825
5521 5528 5538 5547 5562 5582 5603 5627 5644 5661 5676 5689 5701 5712 5722 5732 5738 5745 5753 5755 5762 5767 5773 5779 5783 5785 5790 5793 5796 5798 5800 5804 5809 5812 5816 5818 5818 5820 5823 5823 5824 5827 5825 5825 5825 5823 5821
5511 5516 5525 5534 5545 5565 5587 5611 5631 5648 5664 5678 5691 5703 5713 5723 5730 5738 5744 5748 5757 5763 5768 5774 5780 5783 5788 5790 5792 5796 5799 5801 5803 5806 5811 5813 5816 5818 5820 5822 5823 5823 5824 5822 5821 5819 5816
5501 5506 5514 5523 5533 5550 5573 5597 5618 5637 5653 5667 5681 5694 5705 5714 5723 5730 5737 5744 5751 5756 5766 5772 5777 5781 5784 5788 5790 5793 5796 5799 5802 5806 5809 5810 5813 5816 5817 5818 5819 5820 5821 5820 5818 5815 5813
5491 5496 5503 5512 5521 5535 5559 5586 5607 5625 5641 5657 5672 5684 5696 5706 5715 5723 5730 5739 5746 5756 5761 5766 5771 5776 5782 5785 5788 5791 5794 5796 5799 5803 5805 5807 5810 5812 5815 5816 5816 5816 5817 5816 5814 5813 5812
5482 5487 5494 5502 5512 5526 5548 5572 5594 5614 5631 5647 5663 5675 5687 5698 5707 5716 5725 5733 5744 5751 5756 5763 5767 5773 5779 5781 5785 5788 5791 5794 5797 5800 5803 5804 5807 5810 5812 5813 5814 5814 5813 5812 5810 5809 5809
5473 5477 5484 5493 5504 5518 5537 5562 5583 5604 5621 5638 5652 5666 5678 5690 5699 5709 5718 5730 5739 5745 5752 5758 5765 5772 5777 5779 5783 5787 5789 5792 5795 5798 5801 5803 5805 5807 5809 5810 5811 5810 5810 5809 5807 5806 5805
5463 5469 5474 5483 5494 5508 5527 5552 5574 5593 5611 5628 5643 5656 5668 5681 5691 5702 5713 5727 5733 5740 5749 5757 5762 5768 5773 5777 5781 5785 5788 5792 5794 5796 5798 5801 5803 5806 5806 5807 5807 5807 5806 5805 5805 5804 5803
5454 5460 5465 5475 5487 5502 5521 5543 5564 5583 5602 5619 5635 5649 5662 5673 5686 5696 5710 5721 5728 5736 5744 5752 5759 5765 5771 5775 5779 5782 5787 5790 5792 5795 5797 5799 5801 5801 5803 5804 5805 5805 5804 5803 5802 5802 5801
5446 5452 5457 5468 5483 5496 5513 5537 5556 5575 5594 5611 5627 5640 5654 5667 5679 5693 5706 5715 5723 5732 5740 5748 5755 5762 5767 5774 5777 5780 5785 5788 5791 5793 5794 5798 5799 5799 5800 5802 5802 5802 5801 5800 5799 5798 5798
5437 5444 5450 5463 5476 5490 5507 5529 5548 5568 5585 5603 5617 5632 5647 5661 5675 5689 5700 5710 5719 5728 5736 5744 5752 5759 5765 5770 5774 5779 5783 5786 5788 5791 5792 5794 5797 5797 5797 5798 5799 5798 5797 5797 5797 5796 5795
5431 5437 5443 5456 5472 5487 5501 5521 5539 5558 5577 5595 5611 5629 5643 5656 5671 5684 5695 5704 5715 5723 5731 5739 5748 5755 5762 5767 5772 5776 5781 5784 5786 5789 5791 5792 5794 5795 5795 5795 5794 5794 5794 5794 5794 5794 5793
5425 5432 5438 5452 5465 5482 5496 5511 5530 5551 5570 5590 5608 5622 5637 5651 5665 5678 5688 5700 5711 5719 5727 5735 5745 5752 5758 5765 5772 5776 5779 5782 5784 5786 5789 5790 5791 5792 5792 5792 5792 5791 5791 5792 5792 5792 5790
5419 5427 5433 5445 5461 5476 5491 5507 5526 5548 5570 5587 5602 5617 5633 5647 5661 5673 5687 5700 5710 5716 5724 5732 5741 5749 5755 5762 5767 5770 5775 5779 5781 5783 5785 5788 5789 5789 5790 5789 5788 5789 5789 5790 5790 5789 5788
5413 5421 5428 5443 5459 5474 5488 5506 5526 5546 5566 5583 5597 5612 5628 5645 5658 5673 5684 5694 5705 5712 5720 5728 5737 5743 5752 5757 5763 5768 5772 5775 5778 5780 5781 5784 5785 5786 5787 5787 5788 5787 5786 5787 5787 5787 5785
5407 5414 5420 5441 5458 5472 5488 5505 5524 5544 5560 5577 5592 5608 5625 5641 5654 5665 5679 5690 5699 5708 5716 5724 5731 5739 5748 5754 5759 5764 5768 5772 5775 5777 5779 5781 5782 5783 5784 5784 5786 5785 5784 5785 5784 5783 5782
5402 5408 5421 5439 5457 5469 5485 5502 5522 5543 5557 5573 5590 5608 5622 5637 5651 5662 5673 5686 5694 5705 5712 5718 5727 5735 5744 5749 5755 5760 5765 5770 5772 5774 5776 5777 5779 5781 5781 5780 5781 5782 5782 5782 5781 5780 5779
5399 5405 5418 5439 5453 5467 5484 5502 5523 5541 5557 5573 5590 5605 5620 5634 5647 5660 5672 5684 5691 5701 5709 5715 5722 5731 5739 5746 5752 5757 5762 5765 5769 5771 5772 5774 5776 5777 5777 5777 5778 5778 5779 5779 5780 5781 5777
5395 5399 5418 5436 5451 5466 5483 5504 5524 5542 5558 5575 5590 5604 5619 5633 5646 5658 5670 5679 5687 5696 5705 5712 5720 5728 5735 5742 5748 5754 5759 5762 5765 5768 5769 5771 5773 5774 5775 5774 5775 5775 5777 5777 5777 5775 5774
5390 5401 5420 5436 5450 5467 5484 5503 5522 5542 5560 5575 5590 5604 5617 5632 5644 5655 5665 5674 5683 5693 5701 5709 5718 5726 5732 5739 5745 5751 5755 5758 5762 5764 5765 5767 5770 5771 5772 5771 5772 5773 5774 5774 5774 5773 5771
Wind_Speed
64 61 59 57 54 52 50 52 51 46 47 49 44 39 42 48 45 44 41 40 40 37 35 33 33 31 28 25 25 19 19 16 13 12 12 18 18 17 22 25 30 25 29 31 29 31 33
70 68 64 61 60 57 53 52 49 50 46 48 49 45 42 43 46 46 47 45 44 42 39 37 35 33 31 27 31 23 24 21 18 14 12 15 21 19 20 25 30 31 28 29 32 32 33
74 73 70 66 64 61 58 54 51 51 51 44 48 48 41 42 41 41 44 47 50 47 44 41 38 33 30 32 35 25 25 24 24 17 14 19 16 18 20 22 25 27 24 27 31 31 31
80 79 76 72 69 65 62 58 54 51 50 50 51 47 43 40 39 39 39 39 42 44 43 39 35 31 30 32 29 27 29 28 26 21 20 18 17 14 16 13 16 20 21 23 28 30 30
83 83 81 79 74 70 66 62 58 54 52 50 49 53 45 41 38 39 38 36 37 36 35 34 32 31 28 25 26 31 32 30 28 26 21 17 15 13 13 12 13 15 16 18 28 30 32
83 85 85 84 80 75 70 66 61 56 54 52 51 49 45 42 39 37 36 35 36 34 33 30 29 29 28 26 25 28 35 33 28 28 22 18 15 11 10 11 14 17 14 16 21 24 26
75 83 86 86 85 81 74 69 65 60 57 56 55 54 48 42 40 37 37 33 34 33 31 28 27 28 26 24 22 24 27 30 30 25 21 20 11 10 13 15 15 18 20 22 22 26 29
61 73 84 87 88 86 79 72 68 63 59 55 56 55 51 45 43 37 37 32 31 29 30 28 27 25 24 24 24 27 28 29 27 24 22 15 11 16 16 17 19 21 23 26 27 27 31
53 61 73 86 89 90 84 76 71 67 62 58 55 53 50 46 42 40 37 29 31 31 27 26 27 23 23 21 23 26 28 25 22 24 21 16 22 15 19 21 22 22 23 23 26 24 28
47 55 62 72 90 91 88 80 74 70 65 61 56 52 49 47 45 41 34 30 33 28 28 26 24 21 19 21 21 20 19 21 21 21 22 20 20 17 20 20 22 21 22 16 20 23 27
42 50 54 61 80 92 90 79 76 72 68 63 58 53 50 49 43 39 34 33 33 30 30 29 26 21 20 19 18 19 20 18 17 20 20 21 21 20 18 21 20 17 16 17 23 27 32
38 43 50 54 67 88 89 82 76 74 70 65 60 53 49 49 43 39 35 36 35 36 33 30 26 23 20 17 19 17 18 20 24 24 22 24 25 22 21 22 17 12 14 16 18 22 31
37 40 47 51 55 73 86 80 77 74 71 67 61 56 50 48 43 40 39 39 40 40 32 30 26 24 22 19 16 16 18 18 18 15 17 24 24 21 20 19 13 14 14 16 17 20 23
36 39 44 49 51 67 81 79 77 75 71 68 63 57 52 48 45 43 42 44 43 38 33 32 29 27 23 20 17 18 20 19 17 17 21 21 23 19 16 13 9 10 14 19 22 22 19
36 38 43 48 48 64 77 82 79 75 72 69 64 57 53 51 48 46 46 48 42 40 36 32 32 29 24 21 21 18 21 19 17 13 15 16 16 15 15 13 13 12 14 18 16 17 23
34 35 42 49 54 61 79 82 80 75 73 70 64 57 54 53 50 49 49 47 44 44 41 34 29 27 23 19 18 17 18 21 16 15 14 13 13 10 13 9 11 11 14 17 16 18 19
34 34 40 49 52 66 81 84 80 76 74 71 65 58 57 55 52 54 51 47 46 47 41 35 32 28 24 19 17 15 14 14 13 15 15 12 8 8 8 8 11 13 12 12 18 21 23
34 32 38 49 57 60 79 84 80 77 75 71 66 61 58 58 56 54 49 48 47 47 42 38 34 28 23 22 20 19 14 12 12 13 12 10 7 12 11 12 13 11 10 11 15 18 20
34 31 35 54 67 64 79 84 81 78 75 72 66 64 61 59 59 52 48 49 48 46 41 38 37 30 26 20 20 19 17 16 13 12 11 9 6 9 9 9 8 9 10 10 14 14 12
34 29 34 58 63 64 77 81 81 78 76 72 69 67 63 61 60 53 48 51 49 47 42 39 35 29 25 22 19 18 15 13 13 12 11 11 8 9 11 12 11 12 10 10 11 12 13
35 30 34 67 64 61 76 83 82 80 76 74 71 67 65 60 57 52 51 54 50 47 43 39 36 30 27 23 18 19 16 14 15 15 14 10 9 9 11 10 13 14 8 11 11 14 15
33 27 46 76 73 71 77 84 83 81 77 75 71 68 65 62 56 52 54 55 52 48 45 40 35 31 27 22 14 11 12 16 15 14 12 11 10 11 13 10 11 14 9 9 10 9 11
31 28 55 70 71 70 83 88 85 81 78 75 71 68 64 62 58 56 52 53 52 50 45 40 34 31 27 22 19 20 17 14 13 13 12 12 12 13 13 11 13 13 7 6 5 7 10
28 30 57 79 69 67 82 85 85 81 77 74 71 69 65 60 57 55 52 51 55 51 47 42 37 35 30 24 21 19 17 16 15 14 14 15 15 12 12 13 13 10 7 5 5 6 9
28 29 51 84 76 75 79 85 84 81 77 74 72 69 64 61 57 55 50 49 51 53 50 45 40 36 30 26 25 22 20 19 16 13 13 15 15 13 13 14 13 7 9 5 6 8 10
30 28 69 79 71 70 79 86 83 80 77 74 71 66 63 60 56 53 52 46 51 51 50 47 42 38 33 30 27 24 21 17 15 13 12 14 16 14 12 15 14 7 8 6 7 9 12
32 30 75 77 70 71 85 85 82 79 76 71 69 63 63 59 55 51 50 49 50 49 49 47 44 39 34 31 28 25 24 22 16 13 10 14 15 14 13 14 9 11 8 8 7 9 11
27 46 88 63 66 78 87 84 80 77 75 67 63 61 61 57 54 50 50 51 48 48 48 47 43 39 35 34 31 28 26 21 19 17 12 13 16 15 14 12 12 11 9 9 8 10 13
27 79 74 65 69 81 82 82 79 76 72 63 60 59 58 55 53 50 53 49 47 46 45 43 38 36 36 35 33 28 25 21 19 16 14 15 15 14 13 14 14 12 10 9 10 11 14
Wind_Direction
252 249 247 246 241 239 239 237 240 241 236 233 235 240 234 231 229 231 230 231 233 234 238 242 248 249 249 246 252 240 253 253 256 264 265 250 249 246 242 241 250 252 247 252 253 254 263
253 249 245 243 243 239 237 236 236 237 239 230 233 239 235 230 229 230 232 234 235 237 239 243 251 249 252 245 246 239 251 252 255 257 265 255 244 240 240 236 241 250 250 253 257 257 265
250 249 245 240 240 239 236 236 235 234 234 234 225 235 237 231 229 230 235 235 237 240 243 247 250 250 250 249 236 241 259 258 259 260 251 259 259 248 247 249 247 247 254 254 250 258 263
247 245 244 241 237 236 236 234 234 230 232 232 226 233 237 233 230 228 233 236 239 241 242 244 246 249 249 243 237 240 249 249 252 251 253 254 259 259 260 253 258 253 257 257 253 255 263
245 241 239 239 236 233 234 232 231 230 229 229 226 230 234 233 230 229 230 234 237 238 237 238 240 242 243 237 231 235 245 249 248 247 249 255 260 253 250 236 227 227 238 241 240 250 254
243 240 236 233 233 231 229 230 228 228 227 226 228 229 231 231 229 229 230 234 235 236 236 234 238 239 239 233 234 236 239 244 242 244 246 252 249 253 249 232 215 217 215 213 218 226 243
243 236 233 231 229 229 226 226 225 224 225 223 226 226 231 229 230 228 229 232 235 235 234 234 230 233 229 229 227 232 241 240 237 235 238 238 242 237 215 218 216 211 202 205 225 231 237
240 235 231 227 226 225 223 222 223 220 222 222 224 228 225 229 228 229 229 231 235 230 221 225 226 219 224 225 222 222 229 237 233 227 230 229 234 221 213 212 206 206 210 218 225 240 245
241 234 230 225 223 221 221 219 218 217 219 220 221 226 223 225 227 229 230 227 229 221 216 217 213 212 220 223 227 225 220 221 221 218 223 216 232 224 214 216 208 217 219 230 245 255 265
242 233 230 226 219 218 219 217 214 214 214 218 218 222 221 223 221 225 225 220 220 211 207 205 205 200 207 210 215 209 207 213 212 212 216 213 229 226 225 226 227 224 228 236 262 274 279
242 231 227 227 219 215 216 215 212 210 211 214 216 219 220 219 219 221 216 213 211 201 196 195 196 190 198 196 199 201 200 201 198 208 209 213 217 222 234 229 230 227 248 265 267 274 273
239 230 224 223 219 214 213 212 208 206 209 211 213 214 215 215 214 215 208 208 199 195 191 190 190 189 193 186 195 197 198 201 196 206 206 213 223 228 224 230 231 247 265 278 273 269 263
239 229 221 219 220 211 209 206 207 203 206 207 209 210 211 212 210 210 205 202 197 193 185 188 193 195 194 189 187 194 193 196 202 201 202 217 224 227 230 227 238 249 256 253 259 274 272
236 228 222 218 217 207 205 200 202 201 202 204 206 208 210 208 206 205 203 200 197 188 186 189 192 194 192 189 185 194 186 191 198 203 208 212 216 221 218 216 235 238 244 259 263 256 253
233 229 221 216 212 201 196 195 198 198 199 200 202 204 205 205 203 201 202 200 190 186 189 192 192 192 193 184 184 189 190 198 204 200 207 201 200 204 196 204 233 264 285 294 286 264 262
229 227 220 214 208 200 190 193 194 196 197 197 199 200 201 200 199 200 201 194 189 190 190 189 183 192 191 185 186 190 193 200 200 193 189 190 189 202 220 240 272 295 290 277 273 272 286
229 225 219 211 206 197 188 190 190 193 194 194 196 196 198 197 196 200 197 189 190 193 191 187 184 187 189 185 180 187 188 188 199 196 188 194 200 227 254 275 286 294 283 260 264 272 280
227 224 217 205 191 193 187 188 186 191 192 192 194 193 195 195 195 197 192 188 190 195 192 191 192 192 195 193 189 191 183 177 187 191 197 206 225 252 273 289 297 302 286 261 256 268 277
225 224 216 199 194 191 186 185 185 189 189 190 191 193 193 194 193 194 189 189 190 195 193 194 196 196 199 189 199 192 187 186 188 203 215 232 245 268 289 308 322 297 257 248 255 277 290
221 225 212 188 188 193 187 181 185 188 188 189 189 191 192 194 193 190 187 191 190 195 196 197 197 189 192 191 199 199 188 191 198 212 218 229 254 278 290 296 295 280 276 254 258 271 294
218 223 213 185 183 195 186 182 184 186 188 187 189 190 192 193 192 189 189 190 189 194 198 200 199 201 203 199 195 197 187 187 206 212 224 233 252 266 277 287 297 302 296 226 265 271 283
217 218 200 173 170 171 185 182 184 185 186 186 187 190 191 192 190 189 190 190 188 194 197 202 197 201 209 203 187 177 188 192 211 228 232 245 256 270 278 293 298 300 299 249 252 267 284
217 215 200 179 168 180 182 180 183 184 184 184 186 190 190 190 191 188 191 192 186 196 200 202 199 199 207 204 194 193 193 207 216 233 246 252 254 267 281 291 296 299 281 223 238 275 294
219 218 197 186 181 182 186 180 181 182 183 184 187 189 188 188 189 189 190 190 188 197 201 202 202 204 205 205 198 200 202 206 218 228 241 251 255 266 278 283 293 290 254 231 263 279 289
221 219 195 181 187 190 184 181 180 182 182 184 187 187 187 186 187 187 190 188 191 195 201 204 203 206 206 202 204 205 207 213 223 238 249 255 256 262 271 282 293 276 216 229 268 283 305
218 214 178 171 177 180 183 180 178 181 182 184 186 184 186 187 187 190 193 192 193 193 202 205 204 205 205 201 203 207 210 213 225 240 254 257 254 260 272 282 296 227 209 227 264 290 313
210 202 168 173 166 176 180 178 177 181 182 183 184 183 185 188 188 189 192 194 196 195 202 206 206 202 203 202 203 202 204 211 229 246 260 263 254 258 263 279 275 211 211 238 265 299 310
215 189 170 169 167 179 176 176 176 180 181 180 182 182 184 186 188 189 192 196 196 198 202 204 205 204 202 203 203 206 211 220 241 252 262 267 253 255 266 274 198 222 229 250 282 300 313
208 173 164 166 170 179 175 173 175 179 179 177 179 180 182 184 187 189 195 196 197 201 203 203 205 206 203 201 208 212 215 227 244 253 263 257 253 251 259 209 203 225 243 258 282 302 314